DW8097 Weather Reports


time (UTC)temp
F
wind
direction
speed
knots
gust
knots
rain 1hr
in
rain 24hr
in
rain mn
in
humidity
%
barometer
mb
20260510054508 44 232 0.0 1.7 0.00 0.00 0.00 62 1014.1
20260510053002 45 279 0.0 1.7 0.00 0.00 0.00 62 1013.9
20260510051600 45 261 0.0 1.7 0.00 0.00 0.00 61 1013.8
20260510050058 44 231 0.9 2.6 0.00 0.00 0.00 62 1013.5
20260510044558 45 297 0.0 2.6 0.00 0.00 0.00 59 1013.5
20260510043055 46 231 0.0 1.7 0.00 0.00 0.00 58 1013.1
20260510041548 46 229 0.0 1.7 0.00 0.00 0.00 57 1013.0
20260510040050 47 230 0.0 1.7 0.00 0.00 0.00 57 1012.9
20260510034550 47 229 0.0 1.7 0.00 0.00 0.00 55 1012.7
20260510033040 48 229 0.0 0.9 0.00 0.00 0.00 53 1012.5
20260510031554 47 228 0.0 1.7 0.00 0.00 0.00 57 1012.3
20260510030038 47 227 0.0 1.7 0.00 0.00 0.00 55 1012.1
20260510024535 48 225 0.0 1.7 0.00 0.00 0.00 53 1011.8
20260510023028 49 225 0.0 1.7 0.00 0.00 0.00 50 1011.5
20260510021532 50 228 0.0 1.7 0.00 0.00 0.00 47 1011.2
20260510020022 52 279 0.0 1.7 0.00 0.00 0.00 44 1010.9
20260510014517 55 5 0.0 1.7 0.00 0.00 0.00 37 1010.7
20260510013015 55 355 0.0 2.6 0.00 0.00 0.00 37 1010.4
20260510011544 56 360 0.9 6.1 0.00 0.00 0.00 35 1010.0
20260510010039 57 355 3.5 9.6 0.00 0.00 0.00 33 1009.8
20260510004533 58 355 3.5 7.0 0.00 0.00 0.00 32 1009.6
20260510003032 58 355 4.3 13.0 0.00 0.00 0.00 32 1009.4
20260510001529 59 19 4.3 12.2 0.00 0.00 0.00 30 1009.2
20260510000026 59 49 4.3 11.3 0.00 0.00 0.00 29 1008.9
20260509234534 59 338 5.2 9.6 0.00 0.00 0.00 30 1008.8
20260509233021 60 355 7.0 13.9 0.00 0.00 0.00 28 1008.6
20260509231519 60 355 7.8 15.6 0.00 0.00 0.00 27 1008.4
20260509230018 60 9 7.8 17.4 0.00 0.00 0.00 26 1008.2
20260509224513 61 333 8.7 16.5 0.00 0.00 0.00 25 1008.0
20260509223016 61 328 9.6 16.5 0.00 0.00 0.00 25 1007.9
20260509221510 62 360 7.0 13.9 0.00 0.00 0.00 26 1007.6
20260509220013 62 36 8.7 14.8 0.00 0.00 0.00 27 1007.6
20260509214505 62 12 5.2 16.5 0.00 0.00 0.00 28 1007.5
20260509213005 62 355 7.8 17.4 0.00 0.00 0.00 27 1007.4
20260509211504 62 355 8.7 14.8 0.00 0.00 0.00 26 1007.4
20260509210003 62 282 7.8 15.6 0.00 0.00 0.00 27 1007.0
20260509204603 63 355 7.0 17.4 0.00 0.00 0.00 27 1007.0
20260509203058 62 13 8.7 15.6 0.00 0.00 0.00 29 1006.8
20260509201557 62 34 6.1 15.6 0.00 0.00 0.00 30 1006.7
20260509200107 62 16 8.7 17.4 0.00 0.00 0.00 30 1006.6
20260509194529 62 322 7.0 16.5 0.00 0.00 0.00 30 1006.6
20260509193025 61 355 6.1 16.5 0.00 0.00 0.00 28 1006.6
20260509191551 61 27 12.2 20.9 0.00 0.00 0.00 28 1006.3
20260509190056 61 323 10.4 16.5 0.00 0.00 0.00 31 1006.3
20260509184618 61 5 10.4 20.9 0.00 0.00 0.00 32 1006.1
20260509183044 62 5 9.6 15.6 0.00 0.00 0.00 35 1005.9
20260509181546 61 17 7.0 15.6 0.00 0.00 0.00 35 1005.6
20260509180040 60 344 7.0 19.1 0.00 0.00 0.00 36 1005.5
20260509174537 59 355 7.0 19.1 0.00 0.00 0.00 38 1005.5
20260509173035 59 15 8.7 16.5 0.00 0.00 0.00 37 1005.3
20260509171533 59 348 6.1 13.9 0.00 0.00 0.00 37 1005.3
20260509170031 58 20 8.7 13.9 0.00 0.00 0.00 40 1005.2
20260509164525 58 5 12.2 18.2 0.00 0.00 0.00 40 1005.4
20260509163027 58 340 9.6 17.4 0.00 0.00 0.00 39 1005.1
20260509161512 58 360 10.4 18.2 0.00 0.00 0.00 44 1005.0
20260509160009 58 336 5.2 13.9 0.00 0.00 0.00 50 1004.9
20260509154544 56 32 7.8 14.8 0.00 0.00 0.00 55 1004.8
20260509153040 55 321 7.0 13.0 0.00 0.00 0.00 58 1004.5
20260509151507 55 321 5.2 13.0 0.00 0.00 0.00 61 1004.3
20260509150007 54 5 7.0 12.2 0.00 0.00 0.00 60 1004.1
20260509144504 54 312 7.0 12.2 0.00 0.00 0.00 61 1003.9
20260509143006 55 5 7.8 13.9 0.00 0.00 0.00 62 1003.8
20260509141503 54 19 9.6 16.5 0.00 0.00 0.00 62 1003.5
20260509140002 53 360 7.0 12.2 0.00 0.00 0.00 67 1003.4
20260509134529 53 32 5.2 11.3 0.00 0.00 0.00 64 1003.1
20260509133027 53 12 7.8 14.8 0.00 0.00 0.00 60 1002.8
20260509131525 53 355 3.5 6.1 0.00 0.00 0.00 54 1002.5
20260509130024 54 296 1.7 5.2 0.00 0.00 0.00 51 1002.2
20260509124528 54 265 1.7 4.3 0.00 0.00 0.00 51 1002.1
20260509123032 54 302 0.0 2.6 0.00 0.00 0.00 52 1001.9
20260509121523 53 269 0.0 1.7 0.00 0.00 0.00 53 1001.7
20260509120020 53 323 0.9 1.7 0.00 0.00 0.00 50 1001.5
20260509114519 52 241 0.0 2.6 0.00 0.00 0.00 52 1001.4
20260509113019 52 311 1.7 4.3 0.00 0.00 0.00 54 1001.5
20260509111529 51 238 0.0 2.6 0.00 0.00 0.00 55 1000.8
20260509110014 52 277 0.9 2.6 0.00 0.00 0.00 52 1000.9
20260509104524 51 187 0.0 1.7 0.00 0.00 0.00 53 1001.1
20260509103012 51 360 1.7 4.3 0.00 0.00 0.00 51 1001.1
20260509101514 51 5 0.0 2.6 0.00 0.00 0.00 52 1000.9
20260509100059 50 278 1.7 7.8 0.00 0.00 0.00 59 1000.6
20260509094544 47 18 0.9 3.5 0.00 0.00 0.00 59 1000.4
20260509093006 48 211 0.0 1.7 0.00 0.00 0.00 58 1000.1
20260509091502 50 211 0.0 0.0 0.00 0.00 0.00 56 1000.2
20260509090101 49 211 0.0 0.9 0.00 0.00 0.00 54 1000.4
20260509084600 50 211 0.0 0.0 0.00 0.00 0.00 51 1000.3
20260509083059 50 211 0.0 0.9 0.00 0.00 0.00 52 1000.3
20260509081602 50 211 0.0 1.7 0.00 0.00 0.00 49 1000.0
20260509080028 49 223 0.0 2.6 0.00 0.00 0.00 52 1000.1
20260509074527 49 219 0.9 2.6 0.00 0.00 0.00 52 1000.2
20260509073023 50 252 0.0 0.9 0.00 0.00 0.00 51 1000.4
20260509071519 50 206 0.9 2.6 0.00 0.00 0.00 49 1000.4
20260509070015 54 248 0.0 0.9 0.00 0.00 0.00 41 1000.7
20260509064525 55 248 0.0 0.0 0.00 0.00 0.00 38 1000.7
20260509063010 56 271 0.0 1.7 0.00 0.00 0.00 35 1000.8
20260509061526 58 302 0.0 3.5 0.00 0.00 0.00 33 1000.8
20260509060009 58 306 2.6 7.0 0.00 0.00 0.00 32 1000.9